Regional Weather Roundup
Issued by NWS Raleigh/Durham, NC

Home | Current Version | Previous Version | Text Only | Print | Product List | Glossary On
Versions: 1 2 3 4 5 6 7 8 9 10 11 12 13 14 15 16 17 18 19 20 21 22 23 24 25 26 27 28 29 30 31 32 33 34 35 36 37 38 39 40 41 42 43 44 45 46 47 48 49 50
000
ASUS42 KRAH 280210
RWRRAH
NORTH CAROLINA WEATHER ROUNDUP
NATIONAL WEATHER SERVICE RALEIGH NC
1000 PM EDT WED MAY 27 2015

NOTE: "FAIR" INDICATES FEW OR NO CLOUDS BELOW 12,000 FEET WITH NO
SIGNIFICANT WEATHER AND/OR OBSTRUCTIONS TO VISIBILITY.

NCZ001-053-055-056-065-067-280300-
WESTERN NORTH CAROLINA

CITY           SKY/WX    TMP DP  RH WIND       PRES   REMARKS
ASHEVILLE      CLOUDY    70  63  78 S3        30.28R
JEFFERSON      PTCLDY    64  58  79 CALM      30.30R
MORGANTON      CLEAR     66  66  98 CALM      30.27R
HICKORY        CLEAR     70  64  81 CALM      30.22R
RUTHERFORDTON  PTCLDY    71  67  87 CALM      30.23R
MOUNT AIRY       N/A     70  65  86 CALM      30.23R
BOONE          CLEAR     65  60  86 CALM      30.31R
$$

NCZ021-022-025-041-071-084-088-280300-
CENTRAL NORTH CAROLINA

CITY           SKY/WX    TMP DP  RH WIND       PRES   REMARKS
CHARLOTTE      PTCLDY    73  65  75 S5        30.21R
GREENSBORO     MOCLDY    74  66  76 S10       30.21R
WINSTON-SALEM  PTCLDY    77  62  59 CALM      30.22R
RALEIGH-DURHAM CLOUDY    73  70  90 S5        30.21S
FORT BRAGG     MOCLDY    74  69  82 S5        30.21R
FAYETTEVILLE   MOCLDY    73  70  90 S5        30.21R
BURLINGTON     PTCLDY    71  67  87 CALM      30.20R
LAURINBURG     MOCLDY    72  68  87 S3        30.22R
$$

NCZ011-015-027-028-043-044-047-080-103-280300-
NORTHEASTERN NORTH CAROLINA

CITY           SKY/WX    TMP DP  RH WIND       PRES   REMARKS
ROCKY MT-WILSO CLOUDY    72  70  93 CALM      30.23R
GREENVILLE     CLOUDY    75  68  78 S7        30.24S
WASHINGTON     MOCLDY    73  66  78 S3        30.25R
ELIZABETH CITY CLEAR     72  65  78 S8        30.24R
MANTEO         CLEAR     73  64  73 SW16      30.26R
CAPE HATTERAS  PTCLDY    72  60  66 SW12      30.27R
$$

NCZ078-087-090-091-093-098-101-280300-
SOUTHEASTERN NORTH CAROLINA

CITY           SKY/WX    TMP DP  RH WIND       PRES   REMARKS
LUMBERTON      MOCLDY    72  70  93 CALM      30.21R
GOLDSBORO      MOCLDY    75  68  79 S1        30.21R
KINSTON        MOCLDY    73  66  78 S6        30.25R
KENANSVILLE    PTCLDY    73  66  79 CALM      30.25R
NEW BERN       MOCLDY    72  65  78 SE5       30.26R
CHERRY POINT   PTCLDY    70  63  78 SE3       30.26R
BEAUFORT       PTCLDY    73  63  70 S7        30.26R
JACKSONVILLE   CLOUDY    74  65  73 S3        30.24R
WILMINGTON     PTCLDY    73  66  78 S6        30.24R
$$



USA.gov is the U.S. government's official web portal to all federal, state and local government web resources and services.